Regional Weather Roundup
Issued by NWS

Home | Current Version | Previous Version | Text Only | Print | Product List | Glossary On
Versions: 1 2 3 4 5 6 7 8 9 10 11 12 13 14 15 16 17 18 19 20 21 22 23 24 25 26 27 28 29 30 31 32 33 34 35 36 37 38 39 40 41 42 43 44 45 46 47 48 49 50
000
ASUS43 KFSD 211010
RWRSD

WEATHER ROUNDUP FOR SOUTH DAKOTA
NATIONAL WEATHER SERVICE SIOUX FALLS SD
400 AM CST WED FEB 21 2018

NOTE: "FAIR" INDICATES FEW OR NO CLOUDS BELOW 12,000 FEET WITH NO
SIGNIFICANT WEATHER AND/OR OBSTRUCTIONS TO VISIBILITY.


SDZ001>005-009-010-012>017-211100-
NORTHWEST AND NORTH CENTRAL SOUTH DAKOTA

CITY           SKY/WX    TMP DP  RH WIND       PRES   REMARKS
BUFFALO          N/A     -5 -13  68 W7        30.16S WCI -19
FAITH            N/A    -10 -15  78 SW7       30.32R WCI -25
MOBRIDGE       CLEAR     -6 -14  68 CALM      30.36R
$$

SDZ012>016-024>037-041>051-057-063-072>074-211100-
SOUTHWEST AND SOUTH CENTRAL SOUTH DAKOTA

CITY           SKY/WX    TMP DP  RH WIND       PRES   REMARKS
RAPID CTY ARPT PTCLDY   -14 -16  91 CALM      30.27F
PIERRE         PTCLDY    -4 -11  72 W15       30.43S WCI -25
CUSTER         PTCLDY    -6 -13  71 CALM      30.08S
ELLSWORTH AFB  PTCLDY    -4 -10  78 SW3       30.26S
PHILIP         PTCLDY   -17 -20  86 CALM      30.40S
PINE RIDGE     PTCLDY   -20 -24  82 E3        30.30F
SPEARFISH        N/A     -8 -15  71 SW6       30.21S WCI -21
WINNER         FAIR       2  -9  60 SW13      30.43F WCI -15
$$

SDZ004>011-016>023-039-040-211100-
NORTHEAST SOUTH DAKOTA

CITY           SKY/WX    TMP DP  RH WIND       PRES   REMARKS
ABERDEEN       CLEAR    -17 -21  82 S8        30.44R WCI -35
WATERTOWN      CLOUDY    -9 -14  78 SW7       30.39R WCI -24
BROOKINGS      CLOUDY    -5 -10  79 W7        30.45R WCI -19
SISSETON         N/A     -2  -9  72 W7        30.41R WCI -15
$$

SDZ017-020-022-023-036>040-048>070-211100-
SOUTHEAST SOUTH DAKOTA

CITY           SKY/WX    TMP DP  RH WIND       PRES   REMARKS
SIOUX FALLS    PTCLDY    -3  -8  79 W7        30.50R WCI -16
HURON          CLEAR     -5 -10  79 SW6       30.49R WCI -18
CHAMBERLAIN    PTCLDY    -4 -11  73 SW8       30.47F WCI -19
MITCHELL       CLEAR     -2  -9  72 W9        30.51S WCI -18
YANKTON        CLOUDY     1  -5  75 CALM      30.53S
$$

ABBREVIATIONS USED IN REMARKS
   TC - TEMPERATURE IN CELSIUS
  WCI - WIND CHILL INDEX
   HX - HEAT INDEX
  VSB - VISIBILITY





USA.gov is the U.S. government's official web portal to all federal, state and local government web resources and services.